C/2018 N1 ( NEOWISE )

Japanese version
Home page
Updated on September 23, 2018

---------------------------------------------------------------------

* Profile

Discovery Date July 2, 2018
Magnitude 16 mag
Discoverer Near-Earth Object Wide-field Infrared Survey Explorer

* Orbital Elements

Epoch 2018 July 21.0 TT = JDT 2458320.5
T 2018 Aug. 1.98810 TT                                  MPCW
q   1.3073276            (2000.0)            P               Q
z  +0.0033669      Peri.  354.56484     +0.46198786     -0.82536285
 +/-0.0006514      Node   292.44108     -0.79989912     -0.54583175
e   0.9955984      Incl.  159.44179     -0.38305170     +0.14437405
From 254 observations 2018 June 29-Sept. 16, mean residual 0".9.

* Finding Charts

* Magnitudes Graph

        m1 = 10.0 + 5 log d + 10.0 log r

---------------------------------------------------------------------

The orbital elements are published on M.P.E.C. 2018-S50.
The charts are made with StellaNavigator Ver.10 (AstroArts).
The magnitudes graphs are made with Comet for Windows.

---------------------------------------------------------------------

Copyright(C) Seiichi Yoshida (comet@aerith.net). All rights reserved.